Time,TemperatureF,DewpointF,PressureIn,WindDirection,WindDirectionDegrees,WindSpeedMPH,WindSpeedGustMPH,Humidity,HourlyPrecipIn,Conditions,Clouds,dailyrainin,SoftwareType,DateUTC
2013-06-04 00:00:00,47.4,45.8,30.08,NNW,333,0.0,1.0,94,0.00,,---,0.00,VWS V14.01,2013-06-04 04:00:00,
2013-06-04 00:01:00,47.5,45.9,30.08,NNW,333,0.0,0.0,94,0.00,,---,0.00,VWS V14.01,2013-06-04 04:01:00,
2013-06-04 00:02:00,47.6,46.2,30.08,NNW,333,0.0,0.0,95,0.00,,---,0.00,VWS V14.01,2013-06-04 04:02:00,
2013-06-04 00:07:00,48.0,46.6,30.08,NNW,333,0.0,0.0,95,0.00,,---,0.00,VWS V14.01,2013-06-04 04:07:00,
2013-06-04 00:12:00,48.1,46.7,30.08,NNW,333,0.0,0.0,95,0.00,,---,0.00,VWS V14.01,2013-06-04 04:12:00,
2013-06-04 00:17:00,47.8,46.2,30.08,NNW,333,0.0,0.0,94,0.00,,---,0.00,VWS V14.01,2013-06-04 04:17:00,
2013-06-04 00:22:00,47.7,46.3,30.08,NNW,333,0.0,0.0,95,0.00,,---,0.00,VWS V14.01,2013-06-04 04:22:00,
2013-06-04 00:27:00,47.6,46.2,30.08,NNW,333,0.0,0.0,95,0.00,,---,0.00,VWS V14.01,2013-06-04 04:27:00,
2013-06-04 00:30:00,47.5,46.1,30.08,NNW,333,0.0,0.0,95,0.00,,---,0.00,VWS V14.01,2013-06-04 04:30:00,
2013-06-04 00:32:00,47.4,46.0,30.08,NNW,333,0.0,0.0,95,0.00,,---,0.00,VWS V14.01,2013-06-04 04:32:00,
2013-06-04 00:37:00,47.3,45.9,30.09,NNW,333,0.0,0.0,95,0.00,,---,0.00,VWS V14.01,2013-06-04 04:37:00,
2013-06-04 00:42:00,47.8,46.4,30.08,NNW,333,0.0,0.0,95,0.00,,---,0.00,VWS V14.01,2013-06-04 04:42:00,
2013-06-04 00:47:00,48.0,46.6,30.08,NNW,333,0.0,0.0,95,0.00,,---,0.00,VWS V14.01,2013-06-04 04:47:00,
2013-06-04 00:52:00,47.9,46.5,30.08,NNW,333,0.0,0.0,95,0.00,,---,0.00,VWS V14.01,2013-06-04 04:52:00,
2013-06-04 00:57:00,47.8,46.4,30.08,NNW,333,0.0,0.0,95,0.00,,---,0.00,VWS V14.01,2013-06-04 04:57:00,
2013-06-04 01:00:00,47.6,46.0,30.08,NNW,333,0.0,0.0,94,0.00,,---,0.00,VWS V14.01,2013-06-04 05:00:00,
2013-06-04 01:02:00,47.4,45.8,30.08,NNW,331,0.0,0.0,94,0.00,,---,0.00,VWS V14.01,2013-06-04 05:02:00,
2013-06-04 01:07:00,47.2,45.6,30.08,NNW,331,0.0,0.0,94,0.00,,---,0.00,VWS V14.01,2013-06-04 05:07:00,
2013-06-04 01:12:00,46.9,45.3,30.08,NNW,333,0.0,0.0,94,0.00,,---,0.00,VWS V14.01,2013-06-04 05:12:00,
2013-06-04 01:17:00,47.1,45.7,30.08,NNW,333,0.0,0.0,95,0.00,,---,0.00,VWS V14.01,2013-06-04 05:17:00,
2013-06-04 01:22:00,47.0,45.7,30.08,NNW,331,0.0,0.0,95,0.00,,---,0.00,VWS V14.01,2013-06-04 05:22:00,
2013-06-04 01:27:00,46.9,45.5,30.08,NNW,332,0.0,0.0,95,0.00,,---,0.00,VWS V14.01,2013-06-04 05:27:00,
2013-06-04 01:30:00,46.9,45.5,30.08,NNW,331,0.0,0.0,95,0.00,,---,0.00,VWS V14.01,2013-06-04 05:30:00,
2013-06-04 01:32:00,46.8,45.5,30.08,NNW,332,0.0,0.0,95,0.00,,---,0.00,VWS V14.01,2013-06-04 05:32:00,
2013-06-04 01:37:00,46.3,45.0,30.08,NNW,331,0.0,0.0,95,0.00,,---,0.00,VWS V14.01,2013-06-04 05:37:00,
2013-06-04 01:42:00,45.9,44.5,30.09,NNW,332,0.0,0.0,95,0.00,,---,0.00,VWS V14.01,2013-06-04 05:42:00,
2013-06-04 01:47:00,45.9,44.5,30.09,NNW,332,0.0,0.0,95,0.00,,---,0.00,VWS V14.01,2013-06-04 05:47:00,
2013-06-04 01:52:00,46.0,44.7,30.08,NNW,331,0.0,0.0,95,0.00,,---,0.00,VWS V14.01,2013-06-04 05:52:00,
2013-06-04 01:58:00,45.9,44.5,30.08,NNW,332,0.0,0.0,95,0.00,,---,0.00,VWS V14.01,2013-06-04 05:58:00,
2013-06-04 02:00:00,45.9,44.5,30.08,NNW,331,0.0,0.0,95,0.00,,---,0.00,VWS V14.01,2013-06-04 06:00:00,
2013-06-04 02:03:00,45.8,44.5,30.08,NNW,331,0.0,0.0,95,0.00,,---,0.00,VWS V14.01,2013-06-04 06:03:00,
2013-06-04 02:08:00,45.5,44.2,30.09,NNW,331,0.0,0.0,95,0.00,,---,0.00,VWS V14.01,2013-06-04 06:08:00,
2013-06-04 02:13:00,45.4,44.0,30.09,NNW,331,0.0,0.0,95,0.00,,---,0.00,VWS V14.01,2013-06-04 06:13:00,
2013-06-04 02:18:00,45.5,44.4,30.09,NNW,332,0.0,0.0,96,0.00,,---,0.00,VWS V14.01,2013-06-04 06:18:00,
2013-06-04 02:23:00,45.4,44.3,30.09,NNW,331,0.0,0.0,96,0.00,,---,0.00,VWS V14.01,2013-06-04 06:23:00,
2013-06-04 02:28:00,45.0,43.9,30.09,NNW,331,0.0,0.0,96,0.00,,---,0.00,VWS V14.01,2013-06-04 06:28:00,
2013-06-04 02:30:00,45.0,43.9,30.09,NNW,331,0.0,0.0,96,0.00,,---,0.00,VWS V14.01,2013-06-04 06:30:00,
2013-06-04 02:33:00,45.1,44.0,30.09,NNW,331,0.0,0.0,96,0.00,,---,0.00,VWS V14.01,2013-06-04 06:33:00,
2013-06-04 02:38:00,44.9,43.8,30.09,NNW,331,0.0,0.0,96,0.00,,---,0.00,VWS V14.01,2013-06-04 06:38:00,
2013-06-04 02:43:00,45.0,43.9,30.09,NNW,331,0.0,0.0,96,0.00,,---,0.00,VWS V14.01,2013-06-04 06:43:00,
2013-06-04 02:48:00,45.5,44.4,30.09,NNW,331,0.0,0.0,96,0.00,,---,0.00,VWS V14.01,2013-06-04 06:48:00,
2013-06-04 02:53:00,45.4,44.3,30.09,NNW,331,0.0,0.0,96,0.00,,---,0.00,VWS V14.01,2013-06-04 06:53:00,
2013-06-04 02:58:00,45.1,44.0,30.09,NNW,332,0.0,0.0,96,0.00,,---,0.00,VWS V14.01,2013-06-04 06:58:00,
2013-06-04 03:00:00,45.1,44.0,30.09,NNW,331,0.0,0.0,96,0.00,,---,0.00,VWS V14.01,2013-06-04 07:00:00,
2013-06-04 03:03:00,45.2,44.1,30.10,NNW,332,0.0,0.0,96,0.00,,---,0.00,VWS V14.01,2013-06-04 07:03:00,
2013-06-04 03:08:00,45.2,44.1,30.09,NNW,332,0.0,0.0,96,0.00,,---,0.00,VWS V14.01,2013-06-04 07:08:00,
2013-06-04 03:13:00,45.4,44.3,30.09,NNW,331,0.0,0.0,96,0.00,,---,0.00,VWS V14.01,2013-06-04 07:13:00,
2013-06-04 03:18:00,45.2,44.1,30.10,NNW,332,0.0,0.0,96,0.00,,---,0.00,VWS V14.01,2013-06-04 07:18:00,
2013-06-04 03:23:00,44.8,43.7,30.10,NNW,332,0.0,0.0,96,0.00,,---,0.00,VWS V14.01,2013-06-04 07:23:00,
2013-06-04 03:28:00,45.1,44.0,30.10,NNW,331,0.0,0.0,96,0.00,,---,0.00,VWS V14.01,2013-06-04 07:28:00,
2013-06-04 03:30:00,45.3,44.5,30.10,NNW,331,0.0,0.0,97,0.00,,---,0.00,VWS V14.01,2013-06-04 07:30:00,
2013-06-04 03:33:00,45.3,44.5,30.09,NNW,331,0.0,0.0,97,0.00,,---,0.00,VWS V14.01,2013-06-04 07:33:00,
2013-06-04 03:38:00,45.1,44.0,30.10,NNW,331,0.0,0.0,96,0.00,,---,0.00,VWS V14.01,2013-06-04 07:38:00,
2013-06-04 03:43:00,44.9,43.8,30.10,NNW,332,0.0,0.0,96,0.00,,---,0.00,VWS V14.01,2013-06-04 07:43:00,
2013-06-04 03:48:00,45.1,44.3,30.10,NNW,332,0.0,0.0,97,0.00,,---,0.00,VWS V14.01,2013-06-04 07:48:00,
2013-06-04 03:53:00,45.1,44.3,30.10,NNW,331,0.0,0.0,97,0.00,,---,0.00,VWS V14.01,2013-06-04 07:53:00,
2013-06-04 03:58:00,45.2,44.4,30.10,NNW,331,0.0,0.0,97,0.00,,---,0.00,VWS V14.01,2013-06-04 07:58:00,
2013-06-04 04:00:00,45.3,44.5,30.10,NNW,332,0.0,0.0,97,0.00,,---,0.00,VWS V14.01,2013-06-04 08:00:00,
2013-06-04 04:03:00,45.2,44.4,30.10,NNW,332,0.0,0.0,97,0.00,,---,0.00,VWS V14.01,2013-06-04 08:03:00,
2013-06-04 04:08:00,44.8,43.7,30.10,NNW,332,0.0,0.0,96,0.00,,---,0.00,VWS V14.01,2013-06-04 08:08:00,
2013-06-04 04:13:00,44.7,43.6,30.09,NNW,331,0.0,0.0,96,0.00,,---,0.00,VWS V14.01,2013-06-04 08:13:00,
2013-06-04 04:18:00,45.0,44.2,30.09,NNW,332,0.0,0.0,97,0.00,,---,0.00,VWS V14.01,2013-06-04 08:18:00,
2013-06-04 04:23:00,44.7,43.9,30.09,NNW,332,0.0,0.0,97,0.00,,---,0.00,VWS V14.01,2013-06-04 08:23:00,
2013-06-04 04:28:00,44.4,43.3,30.09,NNW,331,0.0,0.0,96,0.00,,---,0.00,VWS V14.01,2013-06-04 08:28:00,
2013-06-04 04:30:00,44.3,43.2,30.09,NNW,331,0.0,0.0,96,0.00,,---,0.00,VWS V14.01,2013-06-04 08:30:00,
2013-06-04 04:33:00,44.1,43.0,30.09,NNW,331,0.0,0.0,96,0.00,,---,0.00,VWS V14.01,2013-06-04 08:33:00,
2013-06-04 04:38:00,43.8,42.7,30.09,NNW,331,0.0,0.0,96,0.00,,---,0.00,VWS V14.01,2013-06-04 08:38:00,
2013-06-04 04:43:00,43.5,42.4,30.09,NNW,331,0.0,0.0,96,0.00,,---,0.00,VWS V14.01,2013-06-04 08:43:00,
2013-06-04 04:48:00,43.1,42.0,30.10,NNW,331,0.0,0.0,96,0.00,,---,0.00,VWS V14.01,2013-06-04 08:48:00,
2013-06-04 04:53:00,42.7,41.6,30.10,NNW,331,0.0,0.0,96,0.00,,---,0.00,VWS V14.01,2013-06-04 08:53:00,
2013-06-04 04:58:00,43.1,42.0,30.10,NNW,331,0.0,0.0,96,0.00,,---,0.00,VWS V14.01,2013-06-04 08:58:00,
2013-06-04 05:00:00,43.5,42.4,30.10,NNW,332,0.0,0.0,96,0.00,,---,0.00,VWS V14.01,2013-06-04 09:00:00,
2013-06-04 05:03:00,43.7,42.9,30.10,NNW,332,0.0,0.0,97,0.00,,---,0.00,VWS V14.01,2013-06-04 09:03:00,
2013-06-04 05:08:00,43.8,43.0,30.10,NNW,332,0.0,0.0,97,0.00,,---,0.00,VWS V14.01,2013-06-04 09:08:00,
2013-06-04 05:13:00,43.9,43.1,30.11,NNW,332,0.0,0.0,97,0.00,,---,0.00,VWS V14.01,2013-06-04 09:13:00,
2013-06-04 05:18:00,43.8,43.0,30.11,NNW,332,0.0,0.0,97,0.00,,---,0.00,VWS V14.01,2013-06-04 09:18:00,
2013-06-04 05:23:00,43.9,43.1,30.11,NNW,331,0.0,0.0,97,0.00,,---,0.00,VWS V14.01,2013-06-04 09:23:00,
2013-06-04 05:28:00,44.4,43.6,30.12,NNW,333,0.0,0.0,97,0.00,,---,0.00,VWS V14.01,2013-06-04 09:28:00,
2013-06-04 05:30:00,44.4,43.6,30.12,NNW,333,0.0,0.0,97,0.00,,---,0.00,VWS V14.01,2013-06-04 09:30:00,
2013-06-04 05:33:00,44.2,43.4,30.12,NNW,333,0.0,0.0,97,0.00,,---,0.00,VWS V14.01,2013-06-04 09:33:00,
2013-06-04 05:38:00,44.2,43.4,30.12,NNW,333,0.0,0.0,97,0.00,,---,0.00,VWS V14.01,2013-06-04 09:38:00,
2013-06-04 05:43:00,44.0,43.2,30.12,NNW,333,0.0,0.0,97,0.00,,---,0.00,VWS V14.01,2013-06-04 09:43:00,
2013-06-04 05:48:00,44.4,43.6,30.12,NNW,331,0.0,0.0,97,0.00,,---,0.00,VWS V14.01,2013-06-04 09:48:00,
2013-06-04 05:53:00,44.5,43.7,30.11,NNW,331,0.0,0.0,97,0.00,,---,0.00,VWS V14.01,2013-06-04 09:53:00,
2013-06-04 05:58:00,44.3,43.5,30.12,NNW,332,0.0,0.0,97,0.00,,---,0.00,VWS V14.01,2013-06-04 09:58:00,
2013-06-04 06:00:00,44.2,43.4,30.12,NNW,332,0.0,0.0,97,0.00,,---,0.00,VWS V14.01,2013-06-04 10:00:00,
2013-06-04 06:03:00,44.0,43.2,30.12,NNW,332,0.0,0.0,97,0.00,,---,0.00,VWS V14.01,2013-06-04 10:03:00,
2013-06-04 06:08:00,43.9,43.1,30.12,NNW,331,0.0,0.0,97,0.00,,---,0.00,VWS V14.01,2013-06-04 10:08:00,
2013-06-04 06:13:00,43.9,43.1,30.12,NNW,331,0.0,0.0,97,0.00,,---,0.00,VWS V14.01,2013-06-04 10:13:00,
2013-06-04 06:18:00,43.7,42.9,30.13,NNW,331,0.0,0.0,97,0.00,,---,0.00,VWS V14.01,2013-06-04 10:18:00,
2013-06-04 06:23:00,43.5,42.7,30.13,NNW,331,0.0,0.0,97,0.00,,---,0.00,VWS V14.01,2013-06-04 10:23:00,
2013-06-04 06:28:00,43.6,42.8,30.13,NNW,331,0.0,0.0,97,0.00,,---,0.00,VWS V14.01,2013-06-04 10:28:00,
2013-06-04 06:30:00,43.6,42.8,30.13,NNW,332,0.0,0.0,97,0.00,,---,0.00,VWS V14.01,2013-06-04 10:30:00,
2013-06-04 06:33:00,43.5,42.7,30.14,NNW,331,0.0,0.0,97,0.00,,---,0.00,VWS V14.01,2013-06-04 10:33:00,
2013-06-04 06:38:00,43.5,42.7,30.14,NNW,331,0.0,0.0,97,0.00,,---,0.00,VWS V14.01,2013-06-04 10:38:00,
2013-06-04 06:43:00,43.7,42.9,30.14,NNW,331,0.0,0.0,97,0.00,,---,0.00,VWS V14.01,2013-06-04 10:43:00,
2013-06-04 06:48:00,43.7,42.9,30.14,NNW,332,0.0,0.0,97,0.00,,---,0.00,VWS V14.01,2013-06-04 10:48:00,
2013-06-04 06:53:00,43.9,43.1,30.14,NNW,332,0.0,0.0,97,0.00,,---,0.00,VWS V14.01,2013-06-04 10:53:00,
2013-06-04 06:58:00,44.2,43.4,30.14,NNW,331,0.0,0.0,97,0.00,,---,0.00,VWS V14.01,2013-06-04 10:58:00,
2013-06-04 07:00:00,44.4,43.6,30.14,NNW,331,0.0,0.0,97,0.00,,---,0.00,VWS V14.01,2013-06-04 11:00:00,
2013-06-04 07:03:00,45.0,44.2,30.15,NNW,333,0.0,0.0,97,0.00,,---,0.00,VWS V14.01,2013-06-04 11:03:00,
2013-06-04 07:09:00,45.6,44.8,30.15,NNW,333,0.0,0.0,97,0.00,,---,0.00,VWS V14.01,2013-06-04 11:09:00,
2013-06-04 07:14:00,45.9,45.1,30.15,NNW,331,0.0,0.0,97,0.00,,---,0.00,VWS V14.01,2013-06-04 11:14:00,
2013-06-04 07:19:00,46.3,45.5,30.16,NNW,333,0.0,0.0,97,0.00,,---,0.00,VWS V14.01,2013-06-04 11:19:00,
2013-06-04 07:24:00,46.7,45.9,30.17,NNW,331,0.0,0.0,97,0.00,,---,0.00,VWS V14.01,2013-06-04 11:24:00,
2013-06-04 07:29:00,47.1,46.6,30.17,NNW,333,0.0,0.0,98,0.00,,---,0.00,VWS V14.01,2013-06-04 11:29:00,
2013-06-04 07:30:00,47.3,46.8,30.17,NNW,333,0.0,0.0,98,0.00,,---,0.00,VWS V14.01,2013-06-04 11:30:00,
2013-06-04 07:34:00,47.9,47.4,30.17,NNW,333,0.0,0.0,98,0.00,,---,0.00,VWS V14.01,2013-06-04 11:34:00,
2013-06-04 07:39:00,49.1,48.6,30.16,NNW,333,0.0,0.0,98,0.00,,---,0.00,VWS V14.01,2013-06-04 11:39:00,
2013-06-04 07:44:00,50.5,50.0,30.16,NNW,333,0.0,1.0,98,0.00,,---,0.00,VWS V14.01,2013-06-04 11:44:00,
2013-06-04 07:49:00,50.9,50.4,30.16,NNW,335,0.0,1.0,98,0.00,,---,0.00,VWS V14.01,2013-06-04 11:49:00,
2013-06-04 07:54:00,51.8,51.3,30.16,NE,51,0.0,1.0,98,0.00,,---,0.00,VWS V14.01,2013-06-04 11:54:00,
2013-06-04 07:59:00,53.0,52.5,30.16,NNE,33,0.0,1.0,98,0.00,,---,0.00,VWS V14.01,2013-06-04 11:59:00,
2013-06-04 08:00:00,53.4,52.8,30.16,NNE,33,0.0,1.0,98,0.00,,---,0.00,VWS V14.01,2013-06-04 12:00:00,
2013-06-04 08:04:00,53.8,53.2,30.16,NE,34,0.0,0.0,98,0.00,,---,0.00,VWS V14.01,2013-06-04 12:04:00,
2013-06-04 08:09:00,54.6,52.3,30.16,WNW,297,0.0,1.0,92,0.00,,---,0.00,VWS V14.01,2013-06-04 12:09:00,
2013-06-04 08:14:00,55.8,52.0,30.16,WNW,284,0.0,1.0,87,0.00,,---,0.00,VWS V14.01,2013-06-04 12:14:00,
2013-06-04 08:19:00,56.7,51.3,30.16,WNW,291,0.0,1.0,82,0.00,,---,0.00,VWS V14.01,2013-06-04 12:19:00,
2013-06-04 08:24:00,57.4,50.6,30.16,NNW,348,0.0,3.0,78,0.00,,---,0.00,VWS V14.01,2013-06-04 12:24:00,
2013-06-04 08:29:00,58.1,49.9,30.16,North,9,3.0,4.0,74,0.00,,---,0.00,VWS V14.01,2013-06-04 12:29:00,
2013-06-04 08:30:00,58.2,49.6,30.16,North,4,1.0,4.0,73,0.00,,---,0.00,VWS V14.01,2013-06-04 12:30:00,
2013-06-04 08:34:00,58.6,49.2,30.15,NNW,328,1.0,3.0,71,0.00,,---,0.00,VWS V14.01,2013-06-04 12:34:00,
2013-06-04 08:39:00,59.1,49.3,30.15,NE,43,2.0,4.0,70,0.00,,---,0.00,VWS V14.01,2013-06-04 12:39:00,
2013-06-04 08:44:00,59.4,49.6,30.16,SSE,153,1.0,4.0,70,0.00,,---,0.00,VWS V14.01,2013-06-04 12:44:00,
2013-06-04 08:49:00,59.9,50.1,30.16,ENE,57,0.0,4.0,70,0.00,,---,0.00,VWS V14.01,2013-06-04 12:49:00,
2013-06-04 08:54:00,60.7,50.1,30.15,NE,53,1.0,4.0,68,0.00,,---,0.00,VWS V14.01,2013-06-04 12:54:00,
2013-06-04 08:59:00,61.3,51.1,30.15,NNW,347,2.0,4.0,69,0.00,,---,0.00,VWS V14.01,2013-06-04 12:59:00,
2013-06-04 09:00:00,61.3,49.9,30.15,NNW,340,1.0,4.0,66,0.00,,---,0.00,VWS V14.01,2013-06-04 13:00:00,
2013-06-04 09:04:00,61.4,51.5,30.15,NE,49,1.0,4.0,70,0.00,,---,0.00,VWS V14.01,2013-06-04 13:04:00,
2013-06-04 09:09:00,61.7,50.2,30.15,ESE,115,1.0,4.0,66,0.00,,---,0.00,VWS V14.01,2013-06-04 13:09:00,
2013-06-04 09:14:00,62.0,49.7,30.15,NNW,347,2.0,5.0,64,0.00,,---,0.00,VWS V14.01,2013-06-04 13:14:00,
2013-06-04 09:19:00,62.0,49.7,30.15,NNW,331,0.0,5.0,64,0.00,,---,0.00,VWS V14.01,2013-06-04 13:19:00,
2013-06-04 09:24:00,62.1,49.4,30.15,ESE,121,0.0,5.0,63,0.00,,---,0.00,VWS V14.01,2013-06-04 13:24:00,
2013-06-04 09:29:00,62.6,49.4,30.16,North,8,4.0,5.0,62,0.00,,---,0.00,VWS V14.01,2013-06-04 13:29:00,
2013-06-04 09:30:00,62.7,49.1,30.15,NE,53,5.0,5.0,61,0.00,,---,0.00,VWS V14.01,2013-06-04 13:30:00,
2013-06-04 09:34:00,62.7,49.1,30.15,ENE,68,0.0,6.0,61,0.00,,---,0.00,VWS V14.01,2013-06-04 13:34:00,
2013-06-04 09:39:00,63.0,49.4,30.15,NNW,347,0.0,6.0,61,0.00,,---,0.00,VWS V14.01,2013-06-04 13:39:00,
2013-06-04 09:44:00,63.1,49.0,30.16,North,352,1.0,10.0,60,0.00,,---,0.00,VWS V14.01,2013-06-04 13:44:00,
2013-06-04 09:49:00,63.3,48.7,30.16,ENE,70,2.0,10.0,59,0.00,,---,0.00,VWS V14.01,2013-06-04 13:49:00,
2013-06-04 09:54:00,63.5,48.5,30.16,SSE,163,2.0,10.0,58,0.00,,---,0.00,VWS V14.01,2013-06-04 13:54:00,
2013-06-04 09:59:00,64.2,48.2,30.16,NNW,348,2.0,10.0,56,0.00,,---,0.00,VWS V14.01,2013-06-04 13:59:00,
2013-06-04 10:00:00,64.2,48.7,30.16,North,11,0.0,10.0,57,0.00,,---,0.00,VWS V14.01,2013-06-04 14:00:00,
2013-06-04 10:04:00,64.5,49.9,30.16,SW,214,0.0,3.0,59,0.00,,---,0.00,VWS V14.01,2013-06-04 14:04:00,
2013-06-04 10:09:00,64.6,48.6,30.15,NNE,27,1.0,5.0,56,0.00,,---,0.00,VWS V14.01,2013-06-04 14:09:00,
2013-06-04 10:14:00,64.6,49.5,30.15,NNE,23,4.0,5.0,58,0.00,,---,0.00,VWS V14.01,2013-06-04 14:14:00,
2013-06-04 10:19:00,64.9,50.2,30.16,SSE,154,1.0,5.0,59,0.00,,---,0.00,VWS V14.01,2013-06-04 14:19:00,
2013-06-04 10:24:00,65.2,48.6,30.16,NNW,348,1.0,5.0,55,0.00,,---,0.00,VWS V14.01,2013-06-04 14:24:00,
2013-06-04 10:29:00,65.2,49.6,30.16,NE,43,0.0,5.0,57,0.00,,---,0.00,VWS V14.01,2013-06-04 14:29:00,
2013-06-04 10:30:00,65.2,49.6,30.16,ENE,67,3.0,5.0,57,0.00,,---,0.00,VWS V14.01,2013-06-04 14:30:00,
2013-06-04 10:34:00,65.3,49.2,30.16,ENE,57,0.0,5.0,56,0.00,,---,0.00,VWS V14.01,2013-06-04 14:34:00,
2013-06-04 10:39:00,65.5,51.7,30.16,NE,49,2.0,6.0,61,0.00,,---,0.00,VWS V14.01,2013-06-04 14:39:00,
2013-06-04 10:44:00,65.6,48.5,30.16,NNE,33,1.0,6.0,54,0.00,,---,0.00,VWS V14.01,2013-06-04 14:44:00,
2013-06-04 10:49:00,65.8,48.7,30.16,NNE,30,4.0,6.0,54,0.00,,---,0.00,VWS V14.01,2013-06-04 14:49:00,
2013-06-04 10:54:00,66.1,48.0,30.16,NNW,343,3.0,6.0,52,0.00,,---,0.00,VWS V14.01,2013-06-04 14:54:00,
2013-06-04 10:59:00,66.6,50.4,30.16,NW,321,1.0,6.0,56,0.00,,---,0.00,VWS V14.01,2013-06-04 14:59:00,
2013-06-04 11:00:00,66.6,49.5,30.16,NNE,20,6.0,8.0,54,0.00,,---,0.00,VWS V14.01,2013-06-04 15:00:00,
2013-06-04 11:04:00,66.4,50.2,30.17,WNW,302,2.0,6.0,56,0.00,,---,0.00,VWS V14.01,2013-06-04 15:04:00,
2013-06-04 11:09:00,66.7,50.5,30.17,SSW,201,2.0,6.0,56,0.00,,---,0.00,VWS V14.01,2013-06-04 15:09:00,
2013-06-04 11:14:00,66.7,48.0,30.16,SSE,156,1.0,7.0,51,0.00,,---,0.00,VWS V14.01,2013-06-04 15:14:00,
2013-06-04 11:19:00,67.1,48.9,30.16,WNW,285,2.0,7.0,52,0.00,,---,0.00,VWS V14.01,2013-06-04 15:19:00,
2013-06-04 11:24:00,67.4,49.7,30.16,SSE,163,2.0,7.0,53,0.00,,---,0.00,VWS V14.01,2013-06-04 15:24:00,
2013-06-04 11:29:00,67.3,49.1,30.16,SSW,211,0.0,7.0,52,0.00,,---,0.00,VWS V14.01,2013-06-04 15:29:00,
2013-06-04 11:30:00,67.3,49.1,30.16,NE,44,4.0,7.0,52,0.00,,---,0.00,VWS V14.01,2013-06-04 15:30:00,
2013-06-04 11:34:00,67.2,50.5,30.16,SE,127,3.0,9.0,55,0.00,,---,0.00,VWS V14.01,2013-06-04 15:34:00,
2013-06-04 11:39:00,67.7,51.0,30.16,NW,316,3.0,9.0,55,0.00,,---,0.00,VWS V14.01,2013-06-04 15:39:00,
2013-06-04 11:44:00,68.2,49.9,30.15,SSE,165,2.0,9.0,52,0.00,,---,0.00,VWS V14.01,2013-06-04 15:44:00,
2013-06-04 11:49:00,68.4,49.6,30.15,NE,54,4.0,9.0,51,0.00,,---,0.00,VWS V14.01,2013-06-04 15:49:00,
2013-06-04 11:54:00,68.6,51.3,30.15,NNW,339,0.0,9.0,54,0.00,,---,0.00,VWS V14.01,2013-06-04 15:54:00,
2013-06-04 11:59:00,68.6,49.8,30.15,NW,323,1.0,9.0,51,0.00,,---,0.00,VWS V14.01,2013-06-04 15:59:00,
2013-06-04 12:00:00,68.5,49.2,30.15,NNE,23,4.0,9.0,50,0.00,,---,0.00,VWS V14.01,2013-06-04 16:00:00,
2013-06-04 12:04:00,68.1,48.8,30.15,North,9,4.0,11.0,50,0.00,,---,0.00,VWS V14.01,2013-06-04 16:04:00,
2013-06-04 12:09:00,67.9,50.7,30.15,NNE,27,0.0,11.0,54,0.00,,---,0.00,VWS V14.01,2013-06-04 16:09:00,
2013-06-04 12:14:00,68.2,48.9,30.16,NW,312,3.0,11.0,50,0.00,,---,0.00,VWS V14.01,2013-06-04 16:14:00,
2013-06-04 12:20:00,67.9,48.1,30.16,NNW,339,1.0,11.0,49,0.00,,---,0.00,VWS V14.01,2013-06-04 16:20:00,
2013-06-04 12:25:00,67.8,49.0,30.16,NW,319,2.0,11.0,51,0.00,,---,0.00,VWS V14.01,2013-06-04 16:25:00,
2013-06-04 12:30:00,68.1,48.8,30.15,ENE,77,1.0,11.0,50,0.00,,---,0.00,VWS V14.01,2013-06-04 16:30:00,
2013-06-04 12:35:00,68.7,47.1,30.16,NNE,22,0.0,7.0,46,0.00,,---,0.00,VWS V14.01,2013-06-04 16:35:00,
2013-06-04 12:40:00,69.1,49.7,30.16,ENE,61,5.0,7.0,50,0.00,,---,0.00,VWS V14.01,2013-06-04 16:40:00,
2013-06-04 12:45:00,69.2,48.1,30.16,NW,313,6.0,7.0,47,0.00,,---,0.00,VWS V14.01,2013-06-04 16:45:00,
2013-06-04 12:50:00,69.0,49.6,30.16,ENE,58,3.0,8.0,50,0.00,,---,0.00,VWS V14.01,2013-06-04 16:50:00,
2013-06-04 12:55:00,68.9,49.5,30.15,WSW,248,0.0,8.0,50,0.00,,---,0.00,VWS V14.01,2013-06-04 16:55:00,
2013-06-04 13:00:00,69.4,49.4,30.15,North,4,7.0,8.0,49,0.00,,---,0.00,VWS V14.01,2013-06-04 17:00:00,
2013-06-04 13:05:00,69.5,47.8,30.15,SE,141,2.0,6.0,46,0.00,,---,0.00,VWS V14.01,2013-06-04 17:05:00,
2013-06-04 13:10:00,69.9,47.6,30.14,SSE,149,3.0,6.0,45,0.00,,---,0.00,VWS V14.01,2013-06-04 17:10:00,
2013-06-04 13:15:00,70.6,51.6,30.14,South,186,1.0,6.0,51,0.00,,---,0.00,VWS V14.01,2013-06-04 17:15:00,
2013-06-04 13:20:00,70.4,48.7,30.14,NW,307,3.0,8.0,46,0.00,,---,0.00,VWS V14.01,2013-06-04 17:20:00,
2013-06-04 13:25:00,70.0,49.4,30.14,ESE,122,2.0,8.0,48,0.00,,---,0.00,VWS V14.01,2013-06-04 17:25:00,
2013-06-04 13:30:00,70.6,48.8,30.14,South,170,1.0,8.0,46,0.00,,---,0.00,VWS V14.01,2013-06-04 17:30:00,
2013-06-04 13:35:00,70.9,50.2,30.14,SSE,167,1.0,7.0,48,0.00,,---,0.00,VWS V14.01,2013-06-04 17:35:00,
2013-06-04 13:40:00,71.4,49.6,30.14,NW,325,1.0,7.0,46,0.00,,---,0.00,VWS V14.01,2013-06-04 17:40:00,
2013-06-04 13:45:00,70.9,46.7,30.14,SE,132,2.0,8.0,42,0.00,,---,0.00,VWS V14.01,2013-06-04 17:45:00,
2013-06-04 13:50:00,71.1,48.1,30.13,SSE,150,1.0,8.0,44,0.00,,---,0.00,VWS V14.01,2013-06-04 17:50:00,
2013-06-04 13:55:00,71.0,48.6,30.13,North,4,3.0,8.0,45,0.00,,---,0.00,VWS V14.01,2013-06-04 17:55:00,
2013-06-04 14:00:00,70.8,48.4,30.13,SW,229,0.0,10.0,45,0.00,,---,0.00,VWS V14.01,2013-06-04 18:00:00,
2013-06-04 14:05:00,71.2,47.6,30.13,NNE,33,2.0,7.0,43,0.00,,---,0.00,VWS V14.01,2013-06-04 18:05:00,
2013-06-04 14:10:00,71.7,48.0,30.13,ENE,74,2.0,7.0,43,0.00,,---,0.00,VWS V14.01,2013-06-04 18:10:00,
2013-06-04 14:15:00,72.2,50.9,30.13,SSW,195,3.0,7.0,47,0.00,,---,0.00,VWS V14.01,2013-06-04 18:15:00,
2013-06-04 14:20:00,72.1,49.6,30.13,NNW,327,1.0,7.0,45,0.00,,---,0.00,VWS V14.01,2013-06-04 18:20:00,
2013-06-04 14:25:00,71.9,48.8,30.13,NNE,26,2.0,7.0,44,0.00,,---,0.00,VWS V14.01,2013-06-04 18:25:00,
2013-06-04 14:30:00,71.7,49.2,30.13,NNE,32,2.0,3.0,45,0.00,,---,0.00,VWS V14.01,2013-06-04 18:30:00,
2013-06-04 14:35:00,71.6,49.8,30.13,ESE,110,2.0,5.0,46,0.00,,---,0.00,VWS V14.01,2013-06-04 18:35:00,
2013-06-04 14:40:00,72.2,50.9,30.13,NE,55,1.0,5.0,47,0.00,,---,0.00,VWS V14.01,2013-06-04 18:40:00,
2013-06-04 14:45:00,71.8,46.9,30.13,WSW,240,2.0,5.0,41,0.00,,---,0.00,VWS V14.01,2013-06-04 18:45:00,
2013-06-04 14:50:00,71.9,48.2,30.13,SE,143,4.0,7.0,43,0.00,,---,0.00,VWS V14.01,2013-06-04 18:50:00,
2013-06-04 14:55:00,72.3,48.6,30.13,North,360,3.0,7.0,43,0.00,,---,0.00,VWS V14.01,2013-06-04 18:55:00,
2013-06-04 15:00:00,72.4,48.7,30.12,SW,218,3.0,4.0,43,0.00,,---,0.00,VWS V14.01,2013-06-04 19:00:00,
2013-06-04 15:05:00,72.3,49.2,30.12,NNW,343,1.0,6.0,44,0.00,,---,0.00,VWS V14.01,2013-06-04 19:05:00,
2013-06-04 15:10:00,72.0,50.7,30.12,ENE,57,2.0,6.0,47,0.00,,---,0.00,VWS V14.01,2013-06-04 19:10:00,
2013-06-04 15:15:00,72.2,51.4,30.12,ESE,120,1.0,6.0,48,0.00,,---,0.00,VWS V14.01,2013-06-04 19:15:00,
2013-06-04 15:20:00,73.0,49.8,30.12,ESE,122,1.0,7.0,44,0.00,,---,0.00,VWS V14.01,2013-06-04 19:20:00,
2013-06-04 15:25:00,73.0,48.6,30.12,SSW,204,1.0,7.0,42,0.00,,---,0.00,VWS V14.01,2013-06-04 19:25:00,
2013-06-04 15:30:00,73.2,51.2,30.12,NE,50,4.0,4.0,46,0.00,,---,0.00,VWS V14.01,2013-06-04 19:30:00,
2013-06-04 15:35:00,73.4,51.4,30.12,NNW,346,3.0,5.0,46,0.00,,---,0.00,VWS V14.01,2013-06-04 19:35:00,
2013-06-04 15:40:00,72.5,49.4,30.12,NW,316,5.0,8.0,44,0.00,,---,0.00,VWS V14.01,2013-06-04 19:40:00,
2013-06-04 15:45:00,72.1,49.0,30.12,North,354,1.0,8.0,44,0.00,,---,0.00,VWS V14.01,2013-06-04 19:45:00,
2013-06-04 15:50:00,72.6,49.5,30.12,ESE,122,6.0,8.0,44,0.00,,---,0.00,VWS V14.01,2013-06-04 19:50:00,
2013-06-04 15:55:00,73.2,52.4,30.12,NE,53,2.0,8.0,48,0.00,,---,0.00,VWS V14.01,2013-06-04 19:55:00,
2013-06-04 16:00:00,72.8,48.4,30.12,NE,46,1.0,3.0,42,0.00,,---,0.00,VWS V14.01,2013-06-04 20:00:00,
2013-06-04 16:05:00,72.6,47.6,30.11,NW,310,4.0,8.0,41,0.00,,---,0.00,VWS V14.01,2013-06-04 20:05:00,
2013-06-04 16:10:00,72.2,48.5,30.11,NNW,333,1.0,12.0,43,0.00,,---,0.00,VWS V14.01,2013-06-04 20:10:00,
2013-06-04 16:15:00,72.5,49.4,30.11,NW,323,1.0,12.0,44,0.00,,---,0.00,VWS V14.01,2013-06-04 20:15:00,
2013-06-04 16:20:00,72.7,50.2,30.11,ENE,61,2.0,12.0,45,0.00,,---,0.00,VWS V14.01,2013-06-04 20:20:00,
2013-06-04 16:25:00,72.7,49.5,30.11,NW,316,1.0,12.0,44,0.00,,---,0.00,VWS V14.01,2013-06-04 20:25:00,
2013-06-04 16:30:00,72.9,49.7,30.11,NE,36,0.0,12.0,44,0.00,,---,0.00,VWS V14.01,2013-06-04 20:30:00,
2013-06-04 16:31:00,73.0,49.8,30.11,NW,314,2.0,3.0,44,0.00,,---,0.00,VWS V14.01,2013-06-04 20:31:00,
2013-06-04 16:36:00,73.0,51.0,30.11,NNE,15,3.0,9.0,46,0.00,,---,0.00,VWS V14.01,2013-06-04 20:36:00,
2013-06-04 16:41:00,72.9,48.5,30.11,South,169,0.0,9.0,42,0.00,,---,0.00,VWS V14.01,2013-06-04 20:41:00,
2013-06-04 16:46:00,73.4,48.3,30.12,NW,323,2.0,9.0,41,0.00,,---,0.00,VWS V14.01,2013-06-04 20:46:00,
2013-06-04 16:51:00,73.2,48.8,30.11,NNE,18,5.0,9.0,42,0.00,,---,0.00,VWS V14.01,2013-06-04 20:51:00,
2013-06-04 16:56:00,73.4,50.2,30.11,West,274,1.0,9.0,44,0.00,,---,0.00,VWS V14.01,2013-06-04 20:56:00,
2013-06-04 17:00:00,74.1,50.8,30.11,ENE,78,2.0,9.0,44,0.00,,---,0.00,VWS V14.01,2013-06-04 21:00:00,
2013-06-04 17:01:00,74.1,50.8,30.11,ENE,78,0.0,2.0,44,0.00,,---,0.00,VWS V14.01,2013-06-04 21:01:00,
2013-06-04 17:06:00,74.1,48.9,30.11,NNW,340,6.0,7.0,41,0.00,,---,0.00,VWS V14.01,2013-06-04 21:06:00,
2013-06-04 17:11:00,73.5,49.0,30.11,North,1,1.0,7.0,42,0.00,,---,0.00,VWS V14.01,2013-06-04 21:11:00,
2013-06-04 17:16:00,73.5,49.0,30.11,North,8,2.0,7.0,42,0.00,,---,0.00,VWS V14.01,2013-06-04 21:16:00,
2013-06-04 17:21:00,73.7,49.8,30.11,WNW,301,0.0,7.0,43,0.00,,---,0.00,VWS V14.01,2013-06-04 21:21:00,
2013-06-04 17:26:00,74.2,49.0,30.10,WSW,258,2.0,7.0,41,0.00,,---,0.00,VWS V14.01,2013-06-04 21:26:00,
2013-06-04 17:30:00,74.4,49.8,30.10,SE,145,1.0,7.0,42,0.00,,---,0.00,VWS V14.01,2013-06-04 21:30:00,
2013-06-04 17:31:00,74.4,51.1,30.10,ESE,114,2.0,4.0,44,0.00,,---,0.00,VWS V14.01,2013-06-04 21:31:00,
2013-06-04 17:36:00,74.6,49.4,30.10,SW,231,0.0,5.0,41,0.00,,---,0.00,VWS V14.01,2013-06-04 21:36:00,
2013-06-04 17:41:00,74.8,51.5,30.10,SE,132,0.0,5.0,44,0.00,,---,0.00,VWS V14.01,2013-06-04 21:41:00,
2013-06-04 17:46:00,74.0,48.2,30.10,NNW,348,1.0,5.0,40,0.00,,---,0.00,VWS V14.01,2013-06-04 21:46:00,
2013-06-04 17:51:00,73.4,48.9,30.10,SW,215,1.0,5.0,42,0.00,,---,0.00,VWS V14.01,2013-06-04 21:51:00,
2013-06-04 17:56:00,73.1,48.7,30.10,NE,37,1.0,6.0,42,0.00,,---,0.00,VWS V14.01,2013-06-04 21:56:00,
2013-06-04 18:00:00,72.8,48.4,30.09,West,277,0.0,6.0,42,0.00,,---,0.00,VWS V14.01,2013-06-04 22:00:00,
2013-06-04 18:01:00,72.8,48.4,30.09,NNW,348,1.0,2.0,42,0.00,,---,0.00,VWS V14.01,2013-06-04 22:01:00,
2013-06-04 18:06:00,71.9,50.0,30.09,North,11,1.0,6.0,46,0.00,,---,0.00,VWS V14.01,2013-06-04 22:06:00,
2013-06-04 18:11:00,71.7,49.2,30.09,ENE,62,1.0,6.0,45,0.00,,---,0.00,VWS V14.01,2013-06-04 22:11:00,
2013-06-04 18:16:00,71.9,50.0,30.09,North,4,0.0,6.0,46,0.00,,---,0.00,VWS V14.01,2013-06-04 22:16:00,
2013-06-04 18:21:00,73.1,51.1,30.09,NE,55,1.0,6.0,46,0.00,,---,0.00,VWS V14.01,2013-06-04 22:21:00,
2013-06-04 18:26:00,73.4,48.9,30.09,West,266,2.0,6.0,42,0.00,,---,0.00,VWS V14.01,2013-06-04 22:26:00,
2013-06-04 18:30:00,73.3,49.5,30.09,SE,137,2.0,6.0,43,0.00,,---,0.00,VWS V14.01,2013-06-04 22:30:00,
2013-06-04 18:32:00,73.4,50.8,30.09,SSW,203,1.0,3.0,45,0.00,,---,0.00,VWS V14.01,2013-06-04 22:32:00,
2013-06-04 18:37:00,73.3,48.8,30.09,ENE,66,1.0,6.0,42,0.00,,---,0.00,VWS V14.01,2013-06-04 22:37:00,
2013-06-04 18:42:00,72.8,47.8,30.09,ENE,70,3.0,8.0,41,0.00,,---,0.00,VWS V14.01,2013-06-04 22:42:00,
2013-06-04 18:47:00,72.5,48.1,30.09,NNE,15,2.0,8.0,42,0.00,,---,0.00,VWS V14.01,2013-06-04 22:47:00,
2013-06-04 18:52:00,72.3,48.0,30.09,WNW,295,1.0,8.0,42,0.00,,---,0.00,VWS V14.01,2013-06-04 22:52:00,
2013-06-04 18:57:00,71.9,48.2,30.09,ENE,66,5.0,8.0,43,0.00,,---,0.00,VWS V14.01,2013-06-04 22:57:00,
2013-06-04 19:00:00,71.5,47.2,30.09,SW,226,1.0,8.0,42,0.00,,---,0.00,VWS V14.01,2013-06-04 23:00:00,
2013-06-04 19:02:00,71.5,49.1,30.09,SSE,148,0.0,2.0,45,0.00,,---,0.00,VWS V14.01,2013-06-04 23:02:00,
2013-06-04 19:07:00,71.4,48.4,30.09,North,350,0.0,3.0,44,0.00,,---,0.00,VWS V14.01,2013-06-04 23:07:00,
2013-06-04 19:12:00,71.5,48.5,30.09,NNW,343,0.0,3.0,44,0.00,,---,0.00,VWS V14.01,2013-06-04 23:12:00,
2013-06-04 19:17:00,71.5,50.8,30.09,SE,130,0.0,3.0,48,0.00,,---,0.00,VWS V14.01,2013-06-04 23:17:00,
2013-06-04 19:22:00,71.1,48.7,30.09,SW,236,2.0,3.0,45,0.00,,---,0.00,VWS V14.01,2013-06-04 23:22:00,
2013-06-04 19:27:00,70.7,49.5,30.09,SW,232,0.0,3.0,47,0.00,,---,0.00,VWS V14.01,2013-06-04 23:27:00,
2013-06-04 19:30:00,70.6,50.0,30.09,NNW,330,0.0,3.0,48,0.00,,---,0.00,VWS V14.01,2013-06-04 23:30:00,
2013-06-04 19:32:00,70.6,49.4,30.09,WSW,240,0.0,1.0,47,0.00,,---,0.00,VWS V14.01,2013-06-04 23:32:00,
2013-06-04 19:37:00,70.3,50.8,30.09,North,1,0.0,3.0,50,0.00,,---,0.00,VWS V14.01,2013-06-04 23:37:00,
2013-06-04 19:42:00,69.7,49.2,30.09,East,88,0.0,3.0,48,0.00,,---,0.00,VWS V14.01,2013-06-04 23:42:00,
2013-06-04 19:47:00,69.3,48.8,30.09,East,88,0.0,3.0,48,0.00,,---,0.00,VWS V14.01,2013-06-04 23:47:00,
2013-06-04 19:52:00,68.9,50.6,30.09,East,88,0.0,3.0,52,0.00,,---,0.00,VWS V14.01,2013-06-04 23:52:00,
2013-06-04 19:57:00,68.6,49.8,30.10,East,88,0.0,3.0,51,0.00,,---,0.00,VWS V14.01,2013-06-04 23:57:00,
2013-06-04 20:00:00,68.3,49.5,30.10,East,88,0.0,3.0,51,0.00,,---,0.00,VWS V14.01,2013-06-05 00:00:00,
2013-06-04 20:02:00,68.1,49.8,30.10,East,88,0.0,0.0,52,0.00,,---,0.00,VWS V14.01,2013-06-05 00:02:00,
2013-06-04 20:07:00,67.5,50.3,30.10,East,88,0.0,0.0,54,0.00,,---,0.00,VWS V14.01,2013-06-05 00:07:00,
2013-06-04 20:12:00,66.8,50.1,30.10,East,88,0.0,0.0,55,0.00,,---,0.00,VWS V14.01,2013-06-05 00:12:00,
2013-06-04 20:17:00,66.3,50.6,30.10,East,88,0.0,0.0,57,0.00,,---,0.00,VWS V14.01,2013-06-05 00:17:00,
2013-06-04 20:22:00,65.8,50.6,30.10,East,88,0.0,0.0,58,0.00,,---,0.00,VWS V14.01,2013-06-05 00:22:00,
2013-06-04 20:27:00,65.2,51.9,30.10,East,88,0.0,0.0,62,0.00,,---,0.00,VWS V14.01,2013-06-05 00:27:00,
2013-06-04 20:30:00,64.8,51.9,30.10,East,88,0.0,0.0,63,0.00,,---,0.00,VWS V14.01,2013-06-05 00:30:00,
2013-06-04 20:32:00,64.5,50.3,30.10,East,88,0.0,0.0,60,0.00,,---,0.00,VWS V14.01,2013-06-05 00:32:00,
2013-06-04 20:37:00,63.9,50.2,30.10,East,88,0.0,0.0,61,0.00,,---,0.00,VWS V14.01,2013-06-05 00:37:00,
2013-06-04 20:42:00,63.4,51.0,30.10,East,88,0.0,0.0,64,0.00,,---,0.00,VWS V14.01,2013-06-05 00:42:00,
2013-06-04 20:47:00,63.0,50.7,30.10,East,88,0.0,0.0,64,0.00,,---,0.00,VWS V14.01,2013-06-05 00:47:00,
2013-06-04 20:52:00,62.6,50.7,30.10,East,88,0.0,0.0,65,0.00,,---,0.00,VWS V14.01,2013-06-05 00:52:00,
2013-06-04 20:57:00,62.1,50.6,30.10,East,88,0.0,0.0,66,0.00,,---,0.00,VWS V14.01,2013-06-05 00:57:00,
2013-06-04 21:00:00,61.8,51.5,30.10,East,88,0.0,0.0,69,0.00,,---,0.00,VWS V14.01,2013-06-05 01:00:00,
2013-06-04 21:02:00,61.7,51.4,30.10,East,88,0.0,0.0,69,0.00,,---,0.00,VWS V14.01,2013-06-05 01:02:00,
2013-06-04 21:07:00,61.2,52.9,30.10,East,88,0.0,0.0,74,0.00,,---,0.00,VWS V14.01,2013-06-05 01:07:00,
2013-06-04 21:12:00,60.8,52.1,30.10,East,88,0.0,0.0,73,0.00,,---,0.00,VWS V14.01,2013-06-05 01:12:00,
2013-06-04 21:17:00,60.5,51.4,30.10,East,88,0.0,0.0,72,0.00,,---,0.00,VWS V14.01,2013-06-05 01:17:00,
2013-06-04 21:22:00,60.3,51.2,30.10,East,88,0.0,0.0,72,0.00,,---,0.00,VWS V14.01,2013-06-05 01:22:00,
2013-06-04 21:27:00,60.0,51.0,30.10,East,88,0.0,0.0,72,0.00,,---,0.00,VWS V14.01,2013-06-05 01:27:00,
2013-06-04 21:30:00,59.9,51.2,30.10,East,88,0.0,0.0,73,0.00,,---,0.00,VWS V14.01,2013-06-05 01:30:00,
2013-06-04 21:32:00,59.7,51.0,30.10,East,88,0.0,0.0,73,0.00,,---,0.00,VWS V14.01,2013-06-05 01:32:00,
2013-06-04 21:37:00,59.3,50.7,30.10,East,87,0.0,0.0,73,0.00,,---,0.00,VWS V14.01,2013-06-05 01:37:00,
2013-06-04 21:42:00,58.9,51.0,30.10,East,88,0.0,0.0,75,0.00,,---,0.00,VWS V14.01,2013-06-05 01:42:00,
2013-06-04 21:47:00,58.6,51.1,30.10,East,88,0.0,0.0,76,0.00,,---,0.00,VWS V14.01,2013-06-05 01:47:00,
2013-06-04 21:52:00,58.4,51.6,30.09,East,88,0.0,0.0,78,0.00,,---,0.00,VWS V14.01,2013-06-05 01:52:00,
2013-06-04 21:57:00,58.3,52.2,30.10,East,88,0.0,0.0,80,0.00,,---,0.00,VWS V14.01,2013-06-05 01:57:00,
2013-06-04 22:00:00,58.2,52.1,30.10,East,88,0.0,0.0,80,0.00,,---,0.00,VWS V14.01,2013-06-05 02:00:00,
2013-06-04 22:02:00,58.1,52.0,30.10,East,88,0.0,0.0,80,0.00,,---,0.00,VWS V14.01,2013-06-05 02:02:00,
2013-06-04 22:07:00,58.1,53.0,30.10,East,87,0.0,0.0,83,0.00,,---,0.00,VWS V14.01,2013-06-05 02:07:00,
2013-06-04 22:12:00,57.9,52.1,30.10,East,88,0.0,0.0,81,0.00,,---,0.00,VWS V14.01,2013-06-05 02:12:00,
2013-06-04 22:17:00,58.1,52.6,30.10,ENE,65,0.0,3.0,82,0.00,,---,0.00,VWS V14.01,2013-06-05 02:17:00,
2013-06-04 22:22:00,58.6,51.8,30.10,SW,229,1.0,3.0,78,0.00,,---,0.00,VWS V14.01,2013-06-05 02:22:00,
2013-06-04 22:27:00,59.4,50.4,30.10,NE,42,0.0,4.0,72,0.00,,---,0.00,VWS V14.01,2013-06-05 02:27:00,
2013-06-04 22:30:00,59.8,50.4,30.10,NE,43,0.0,4.0,71,0.00,,---,0.00,VWS V14.01,2013-06-05 02:30:00,
2013-06-04 22:32:00,59.9,50.9,30.10,NE,43,0.0,0.0,72,0.00,,---,0.00,VWS V14.01,2013-06-05 02:32:00,
2013-06-04 22:37:00,60.3,50.1,30.11,NNW,343,0.0,2.0,69,0.00,,---,0.00,VWS V14.01,2013-06-05 02:37:00,
2013-06-04 22:42:00,60.7,50.1,30.11,ENE,65,0.0,2.0,68,0.00,,---,0.00,VWS V14.01,2013-06-05 02:42:00,
2013-06-04 22:47:00,60.9,49.9,30.11,SSE,152,0.0,3.0,67,0.00,,---,0.00,VWS V14.01,2013-06-05 02:47:00,
2013-06-04 22:52:00,61.0,50.0,30.11,North,352,0.0,3.0,67,0.00,,---,0.00,VWS V14.01,2013-06-05 02:52:00,
2013-06-04 22:57:00,61.1,50.1,30.11,SW,214,0.0,3.0,67,0.00,,---,0.00,VWS V14.01,2013-06-05 02:57:00,
2013-06-04 23:00:00,61.0,49.2,30.11,NW,314,0.0,3.0,65,0.00,,---,0.00,VWS V14.01,2013-06-05 03:00:00,
2013-06-04 23:02:00,61.0,49.2,30.11,SE,143,0.0,1.0,65,0.00,,---,0.00,VWS V14.01,2013-06-05 03:02:00,
2013-06-04 23:07:00,61.1,49.3,30.11,SSW,205,0.0,3.0,65,0.00,,---,0.00,VWS V14.01,2013-06-05 03:07:00,
2013-06-04 23:12:00,61.1,48.8,30.11,East,84,0.0,6.0,64,0.00,,---,0.00,VWS V14.01,2013-06-05 03:12:00,
2013-06-04 23:17:00,61.2,48.5,30.11,SW,224,0.0,6.0,63,0.00,,---,0.00,VWS V14.01,2013-06-05 03:17:00,
2013-06-04 23:22:00,61.0,48.8,30.11,SW,225,0.0,6.0,64,0.00,,---,0.00,VWS V14.01,2013-06-05 03:22:00,
2013-06-04 23:27:00,60.8,48.1,30.11,SSE,158,1.0,6.0,63,0.00,,---,0.00,VWS V14.01,2013-06-05 03:27:00,
2013-06-04 23:30:00,60.8,48.1,30.11,SE,138,0.0,6.0,63,0.00,,---,0.00,VWS V14.01,2013-06-05 03:30:00,
2013-06-04 23:32:00,60.7,48.5,30.11,SSE,153,1.0,2.0,64,0.00,,---,0.00,VWS V14.01,2013-06-05 03:32:00,
2013-06-04 23:37:00,60.5,48.7,30.11,ENE,76,0.0,2.0,65,0.00,,---,0.00,VWS V14.01,2013-06-05 03:37:00,
2013-06-04 23:42:00,60.4,48.6,30.11,South,173,0.0,3.0,65,0.00,,---,0.00,VWS V14.01,2013-06-05 03:42:00,
2013-06-04 23:47:00,60.3,48.5,30.11,ESE,113,0.0,3.0,65,0.00,,---,0.00,VWS V14.01,2013-06-05 03:47:00,
2013-06-04 23:52:00,60.1,47.9,30.11,SE,136,1.0,4.0,64,0.00,,---,0.00,VWS V14.01,2013-06-05 03:52:00,
2013-06-04 23:58:00,60.1,48.3,30.11,SE,127,0.0,4.0,65,0.00,,---,0.00,VWS V14.01,2013-06-05 03:58:00,